星链-30456 (STARLINK-30456 )

导读

STARLINK-30456是美国太空探索技术公司SpaceX星链星座的成员,由美国于2023年9月25日发射入轨,服务全球卫星互联网,为偏远地区用户提供高速低延迟网络接入,补充全球网络覆盖,星链计划为全球用户构建近地轨道卫星通信网,该卫星是星链组网扩容的重要组成部分。

基本信息
目录编号:
57943
目录名称:
STARLINK-30456
国际标识:
2023-148J
轨道中心:
EARTH
卫星名称:
星链-30456
卫星全名:
星链-30456 (STARLINK-30456 )
卫星状态:
在轨 (已飞行1075 天)
发射日期:
2023-09-25 UTC
国别 :
美国 (US)
星等 :
--
轨道信息
数据来源 国际轨道数据 AOE轨道数据
星历时间 2026-09-03T19:11:17+0800
18小时前
查看轨道信息
2026-08-31T02:00:00+0800
4天前
查看轨道信息
半长轴 6840.865km 6840.865km
偏心率 0.00012 0.0001341
轨道倾角 53.160° 53.159°
近地点辐角 81.011° 81.853°
升交点赤经 277.614° 294.986°
平近点角 279.103° 259.462°
近地点 461.907km 461.81km
远地点 463.549km 463.646km
周期 93.848分钟 93.848分钟
每日圈数 15.343918 15.343917
详细信息
固有亮度:
5
最大亮度:
0.3
卫星平台:
Starlink v2.0 mini
覆盖范围:
全球
运营商:
太空探索技术公司
运营商所在国:
美国
制造商(研发单位):
太空探索技术公司
制造商所在国:
美国
使用方式:
暂无
卫星简介
星链(Starlink)计划是由太空探索技术公司(SpaceX)提出的一个巨型低轨卫星互联网星座项目,计划在2019年至2024年间在太空搭建由约1.2万颗卫星组成的“星链”网络,其中1584颗将部署在地球上空550千米处的近地轨道,并从2020年开始工作。该卫星仍在工作。
2D轨道图
3D轨道图
轨道高度分析图
轨道倾角分析图
轨道综合分析图
查看轨道综合分析图
交会数据列表
事件ID 空间交会对象 最接近时刻(TCA) 交会距离 交会风险概率(CRP) 交会风险指数(CRI) 操作
CDM_260903-201705-794306-602721
2026-09-03T
20:17:19+0000
0.728 km
远距离
4.888263E-5 中风险 0.69
CDM_260904-062605-794306-602721
2026-09-04T
06:26:58+0000
1.762 km
极远距离
2.650486E-6 低风险 0.43
CDM_260904-045305-794306-602721
2026-09-04T
04:53:10+0000
1.766 km
极远距离
2.636155E-6 低风险 0.43
CDM_260903-184305-794306-602721
2026-09-03T
18:43:31+0000
2.493 km
极远距离
1.199309E-6 低风险 0.37